Weather History for Eureka Airport, NV

Change the Weather History Date:

Saturday, February 18, 2012

  Actual Average Record
Temperature  
Mean Temperature 30 °F -  
Max Temperature 41 °F - - ()
Min Temperature 19 °F - - ()
Degree Days  
Heating Degree Days 35    
Moisture  
Dew Point 21 °F    
Average Humidity 71    
Maximum Humidity 93    
Minimum Humidity 45    
Precipitation  
Precipitation 0.00 in - - ()
Sea Level Pressure  
Sea Level Pressure 30.03 in    
Wind  
Wind Speed 6 mph ()    
Max Wind Speed 16 mph    
Max Gust Speed 21 mph    
Visibility 9.2 miles    
Events      
T = Trace of Precipitation, MM = Missing Value Source: Averaged Metar Reports

Daily Weather History Graph

Daily Weather History Graph

Search for Another Location

Airport:

Trip Planner

Search our weather history database for the weather conditions in past years. The results will help you decide how hot, cold, wet, or windy it might be!

Date:

Astronomy

Feb. 18, 2012 Rise Set
Actual Time 6:32 AM PST 5:23 PM PST
Civil Twilight 6:05 AM PST 5:50 PM PST
Nautical Twilight 5:34 AM PST 6:22 PM PST
Astronomical Twilight 5:02 AM PST 6:53 PM PST
Moon 4:15 AM PST (2/18) 2:25 PM PST (2/18)
Length of Visible Light 11h 45m
Length of Day
10h 50m
Waning Crescent, 10% of the Moon is Illuminated
Feb 18
Waning Crescent
Feb 21
New
Feb 29
First Quarter
Mar 8
Full
Mar 14
Last Quarter

Hourly Weather History & Observations

Time (PST) Temp. Windchill Dew Point Humidity Pressure Visibility Wind Dir Wind Speed Gust Speed Precip Events Conditions
12:15 AM 21.2 °F 14.9 °F 17.6 °F 86% 30.16 in 10.0 mi SW 4.6 mph - N/A   Clear
12:35 AM 21.2 °F 11.7 °F 17.6 °F 86% 30.15 in 10.0 mi SW 8.1 mph - N/A   Clear
12:55 AM 21.2 °F 12.6 °F 17.6 °F 86% 30.15 in 10.0 mi SSW 6.9 mph - N/A   Clear
1:15 AM 21.2 °F 11.7 °F 17.6 °F 86% 30.15 in 10.0 mi SSW 8.1 mph - N/A   Clear
1:35 AM 21.2 °F 10.9 °F 17.6 °F 86% 30.14 in 10.0 mi South 9.2 mph - N/A   Clear
1:55 AM 23.0 °F 15.8 °F 17.6 °F 80% 30.15 in 10.0 mi South 5.8 mph - N/A   Clear
2:15 AM 23.0 °F 17.0 °F 17.6 °F 80% 30.14 in 10.0 mi South 4.6 mph - N/A   Clear
2:35 AM 24.8 °F 14.6 °F 19.4 °F 80% 30.14 in 10.0 mi South 10.4 mph - N/A   Clear
2:55 AM 24.8 °F 16.1 °F 17.6 °F 74% 30.13 in 10.0 mi SSW 8.1 mph - N/A   Clear
3:15 AM 24.8 °F 14.0 °F 17.6 °F 74% 30.12 in 10.0 mi SW 11.5 mph - N/A   Clear
3:35 AM 21.2 °F 13.6 °F 15.8 °F 80% 30.12 in 10.0 mi SSW 5.8 mph - N/A   Clear
4:15 AM 21.2 °F 10.9 °F 17.6 °F 86% 30.11 in 10.0 mi SSW 9.2 mph - N/A   Clear
4:35 AM 23.0 °F 13.1 °F 17.6 °F 80% 30.11 in 10.0 mi SW 9.2 mph - N/A   Clear
5:35 AM 19.4 °F 7.9 °F 15.8 °F 86% 30.10 in 10.0 mi SSW 10.4 mph - N/A   Clear
5:55 AM 19.4 °F 9.5 °F 15.8 °F 86% 30.09 in 10.0 mi SSW 8.1 mph - N/A   Clear
6:15 AM 19.4 °F 8.6 °F 15.8 °F 86% 30.09 in 10.0 mi SSW 9.2 mph - N/A   Clear
6:35 AM 19.4 °F 10.4 °F 15.8 °F 86% 30.09 in 10.0 mi SSW 6.9 mph - N/A   Clear
6:55 AM 19.4 °F 10.4 °F 15.8 °F 86% 30.09 in 10.0 mi South 6.9 mph - N/A   Clear
7:35 AM 21.2 °F 11.7 °F 15.8 °F 80% 30.10 in 10.0 mi SSW 8.1 mph - N/A   Clear
7:55 AM 24.8 °F 14.6 °F 19.4 °F 80% 30.10 in 10.0 mi SW 10.4 mph - N/A   Clear
8:35 AM 30.2 °F 26.7 °F 23.0 °F 75% 30.10 in 10.0 mi WSW 3.5 mph - N/A   Clear
8:55 AM 32.0 °F 28.7 °F 23.0 °F 69% 30.09 in 10.0 mi SW 3.5 mph - N/A   Clear
9:15 AM 32.0 °F - 23.0 °F 69% 30.09 in 10.0 mi Calm Calm - N/A   Clear
9:35 AM 33.8 °F - 23.0 °F 65% 30.09 in 10.0 mi Calm Calm - N/A   Clear
9:55 AM 33.8 °F - 23.0 °F 65% 30.09 in 10.0 mi Calm Calm - N/A   Clear
10:15 AM 33.8 °F - 23.0 °F 65% 30.09 in 10.0 mi Calm Calm - N/A   Clear
10:35 AM 35.6 °F - 23.0 °F 60% 30.09 in 10.0 mi Calm Calm - N/A   Clear
10:55 AM 35.6 °F - 21.2 °F 56% 30.08 in 10.0 mi Calm Calm - N/A   Clear
11:15 AM 39.2 °F 35.9 °F 23.0 °F 52% 30.07 in 10.0 mi WSW 4.6 mph - N/A   Clear
11:35 AM 39.2 °F 37.0 °F 23.0 °F 52% 30.07 in 10.0 mi WSW 3.5 mph - N/A   Clear
11:55 AM 41.0 °F 35.8 °F 21.2 °F 45% 30.06 in 10.0 mi WSW 8.1 mph - N/A   Partly Cloudy
12:15 PM 39.2 °F - 24.8 °F 56% 30.06 in 10.0 mi Calm Calm - N/A   Mostly Cloudy
12:35 PM 39.2 °F - 23.0 °F 52% 30.04 in 10.0 mi Calm Calm - N/A   Scattered Clouds
12:55 PM 41.0 °F 36.4 °F 23.0 °F 49% 30.03 in 10.0 mi SW 6.9 mph - N/A   Partly Cloudy
1:15 PM 39.2 °F 35.9 °F 23.0 °F 52% 30.03 in 10.0 mi West 4.6 mph - N/A   Clear
1:35 PM 41.0 °F 36.4 °F 24.8 °F 53% 30.01 in 10.0 mi North 6.9 mph - N/A   Clear
1:55 PM 39.2 °F 35.9 °F 24.8 °F 56% 30.00 in 10.0 mi NW 4.6 mph - N/A   Scattered Clouds
2:15 PM 39.2 °F 33.6 °F 23.0 °F 52% 29.98 in 10.0 mi SW 8.1 mph 18.4 mph N/A   Scattered Clouds
2:35 PM 39.2 °F 33.0 °F 23.0 °F 52% 29.97 in 10.0 mi SW 9.2 mph - N/A   Scattered Clouds
2:55 PM 39.2 °F 32.0 °F 23.0 °F 52% 29.97 in 10.0 mi WSW 11.5 mph - N/A   Overcast
3:15 PM 39.2 °F 35.0 °F 23.0 °F 52% 29.97 in 10.0 mi SW 5.8 mph - N/A   Scattered Clouds
3:35 PM 39.2 °F - 23.0 °F 52% 29.97 in 10.0 mi Calm Calm - N/A   Clear
3:55 PM 37.4 °F - 24.8 °F 60% 29.96 in 10.0 mi Calm Calm - N/A   Clear
4:15 PM 37.4 °F 32.8 °F 24.8 °F 60% 29.95 in 10.0 mi South 5.8 mph - N/A   Clear
4:35 PM 37.4 °F 32.8 °F 23.0 °F 56% 29.94 in 10.0 mi SE 5.8 mph - N/A   Clear
4:55 PM 35.6 °F 31.7 °F 23.0 °F 60% 29.95 in 10.0 mi ESE 4.6 mph - N/A   Clear
5:15 PM 35.6 °F - 23.0 °F 60% 29.94 in 10.0 mi Calm Calm - N/A   Mostly Cloudy
5:35 PM 35.6 °F - 23.0 °F 60% 29.94 in 10.0 mi Calm Calm - N/A   Overcast
5:55 PM 35.6 °F - 23.0 °F 60% 29.94 in 10.0 mi Calm Calm - N/A   Overcast
6:15 PM 33.8 °F - 23.0 °F 65% 29.94 in 10.0 mi Calm Calm - N/A   Mostly Cloudy
6:55 PM 32.0 °F 27.5 °F 23.0 °F 69% 29.94 in 10.0 mi WSW 4.6 mph - N/A   Mostly Cloudy
7:15 PM 32.0 °F 28.7 °F 24.8 °F 75% 29.94 in 10.0 mi WSW 3.5 mph - N/A   Overcast
7:35 PM 32.0 °F - 24.8 °F 75% 29.94 in 10.0 mi Calm Calm - N/A   Overcast
7:55 PM 32.0 °F 27.5 °F 23.0 °F 69% 29.94 in 10.0 mi North 4.6 mph - N/A   Scattered Clouds
8:15 PM 30.2 °F 22.6 °F 23.0 °F 75% 29.94 in 10.0 mi North 8.1 mph - N/A   Mostly Cloudy
8:55 PM 28.4 °F 20.4 °F 24.8 °F 86% 29.94 in 10.0 mi NNE 8.1 mph - N/A   Overcast
9:15 PM 28.4 °F 22.2 °F 24.8 °F 86% 29.94 in 10.0 mi NNW 5.8 mph - N/A   Mostly Cloudy
9:35 PM 28.4 °F 22.2 °F 24.8 °F 86% 29.93 in 10.0 mi NNW 5.8 mph - N/A   Overcast
9:55 PM 28.4 °F 17.5 °F 24.8 °F 86% 29.95 in 10.0 mi North 13.8 mph - N/A   Overcast
10:15 PM 26.6 °F 14.3 °F 23.0 °F 86% 29.96 in 1.5 mi North 16.1 mph - N/A   Overcast
10:35 PM 26.6 °F 14.3 °F 23.0 °F 86% 29.96 in 0.8 mi North 16.1 mph 20.7 mph N/A   Overcast
10:55 PM 24.8 °F 13.4 °F 23.0 °F 93% 29.96 in 2.0 mi NNE 12.7 mph - N/A   Overcast
11:15 PM 24.8 °F 17.9 °F 23.0 °F 93% 29.97 in 1.0 mi North 5.8 mph - N/A   Overcast
11:35 PM 24.8 °F 16.9 °F 23.0 °F 93% 29.97 in 3.0 mi North 6.9 mph - N/A   Overcast
11:55 PM 24.8 °F 14.6 °F 21.2 °F 86% 29.97 in 2.0 mi North 10.4 mph - N/A   Overcast